Weather History for Salina, KS

Change the Weather History Date:

Sunday, February 24, 2013

  Actual Average Record
Temperature  
Mean Temperature 27 °F 38 °F  
Max Temperature 41 °F 50 °F 84 °F (1918)
Min Temperature 13 °F 27 °F -15 °F (1913)
Degree Days  
Heating Degree Days 38 27  
Month to date heating degree days 729 722  
Since 1 July heating degree days 3494 3738  
Cooling Degree Days 0 0  
Month to date cooling degree days 0 0  
Year to date cooling degree days 0 0  
Moisture  
Dew Point 21 °F    
Average Humidity 74    
Maximum Humidity 88    
Minimum Humidity 59    
Precipitation  
Precipitation T in 0.05 in 0.77 in (2001)
Month to date precipitation 1.18 0.98  
Year to date precipitation 2.06 1.61  
Sea Level Pressure  
Sea Level Pressure 29.94 in    
Wind  
Wind Speed 7 mph (ENE)    
Max Wind Speed 17 mph    
Max Gust Speed 22 mph    
Visibility 8 miles    
Events Rain    
T = Trace of Precipitation, MM = Missing Value Source: NWS Daily Summary

Daily Weather History Graph

Daily Weather History Graph

Search for Another Location

Airport:

Trip Planner

Search our weather history database for the weather conditions in past years. The results will help you decide how hot, cold, wet, or windy it might be!

Date:

Astronomy

Feb. 24, 2013 Rise Set
Actual Time 7:09 AM CST 6:18 PM CST
Civil Twilight 6:42 AM CST 6:45 PM CST
Nautical Twilight 6:11 AM CST 7:16 PM CST
Astronomical Twilight 5:41 AM CST 7:47 PM CST
Moon 5:30 PM CST (2/24) 6:07 AM CST (2/24)
Length of Visible Light 12h 02m
Length of Day
11h 08m
Waxing Gibbous, 99% of the Moon is Illuminated
Feb 24
Waxing Gibbous
Feb 25
Full
Mar 4
Last Quarter
Mar 11
New
Mar 19
First Quarter

Hourly Weather History & Observations

Time (CST) Temp. Windchill Dew Point Humidity Pressure Visibility Wind Dir Wind Speed Gust Speed Precip Events Conditions
12:53 AM 19.9 °F 13.4 °F 15.1 °F 81% 29.94 in 6.0 mi SE 4.6 mph - N/A   Haze
1:53 AM 15.1 °F - 12.0 °F 88% 29.94 in 5.0 mi Calm Calm - N/A   Clear
2:53 AM 17.1 °F - 12.9 °F 84% 29.93 in 7.0 mi Calm Calm - N/A   Clear
3:53 AM 15.1 °F 6.4 °F 10.9 °F 84% 29.93 in 4.0 mi North 5.8 mph - N/A   Clear
4:53 AM 15.1 °F - 10.0 °F 80% 29.94 in 3.0 mi Calm Calm - N/A   Haze
5:53 AM 14.0 °F - 10.9 °F 88% 29.95 in 2.5 mi Calm Calm - N/A   Clear
6:00 AM 15.8 °F 10.2 °F 12.2 °F 86% 29.90 in 4.0 mi East 3.5 mph - N/A   Clear
6:53 AM 17.1 °F 11.7 °F 12.9 °F 84% 29.95 in 6.0 mi ESE 3.5 mph - N/A   Clear
7:53 AM 15.1 °F - 10.9 °F 84% 29.95 in 5.0 mi Calm Calm - N/A   Clear
8:53 AM 18.0 °F - 12.9 °F 81% 29.98 in 5.0 mi Calm Calm - N/A   Haze
9:53 AM 30.9 °F 23.5 °F 21.0 °F 67% 29.97 in 10.0 mi ESE 8.1 mph - N/A   Clear
10:53 AM 34.0 °F 26.6 °F 21.9 °F 61% 29.96 in 10.0 mi ESE 9.2 mph - N/A   Scattered Clouds
11:53 AM 36.0 °F 29.6 °F 24.1 °F 62% 29.94 in 10.0 mi East 8.1 mph - N/A   Overcast
12:53 PM 37.9 °F 29.6 °F 25.0 °F 60% 29.90 in 10.0 mi East 13.8 mph - N/A   Overcast
1:53 PM 39.9 °F 32.1 °F 27.0 °F 60% 29.88 in 10.0 mi East 13.8 mph - N/A   Overcast
2:53 PM 39.9 °F 33.4 °F 27.0 °F 60% 29.88 in 10.0 mi East 10.4 mph - N/A   Partly Cloudy
3:53 PM 39.9 °F 33.9 °F 28.0 °F 63% 29.89 in 10.0 mi East 9.2 mph - N/A   Mostly Cloudy
4:53 PM 39.9 °F 33.9 °F 27.0 °F 60% 29.89 in 9.0 mi ENE 9.2 mph - N/A   Mostly Cloudy
5:53 PM 39.0 °F 33.4 °F 28.0 °F 65% 29.89 in 10.0 mi ENE 8.1 mph - N/A   Mostly Cloudy
6:53 PM 37.9 °F 32.7 °F 27.0 °F 65% 29.94 in 10.0 mi NNE 6.9 mph - N/A   Overcast
7:53 PM 37.9 °F 31.5 °F 27.0 °F 65% 29.96 in 10.0 mi NNE 9.2 mph - N/A   Overcast
8:53 PM 37.0 °F 29.8 °F 27.0 °F 67% 29.97 in 9.0 mi NNE 10.4 mph - N/A   Overcast
9:53 PM 36.0 °F 27.1 °F 28.0 °F 73% 29.98 in 8.0 mi North 13.8 mph - N/A   Overcast
10:53 PM 36.0 °F 28.0 °F 28.0 °F 73% 29.97 in 9.0 mi NNE 11.5 mph - N/A   Overcast
11:53 PM 35.1 °F 25.2 °F 30.0 °F 82% 29.98 in 6.0 mi North 16.1 mph - 0.00 in Rain Light Rain